Location: Pinawa
(50.1500°N, 95.8830°W)
Time: 08:43:39
(UTC-05:00)

ISS - All Passes

Search period start: 16 April 2014 00:00
Search period end: 26 April 2014 00:00
Orbit: 414 x 420 km, 51.6° (Epoch: 16 April)

Date Brightness Start Highest point End Pass type
(mag) Time Alt. Az. Time Alt. Az. Time Alt. Az.
16 Apr - 00:27:33 10° WSW 00:29:27 14° SW 00:31:20 10° S visible
16 Apr - 17:12:36 10° S 17:14:58 18° SE 17:17:21 10° E daylight
16 Apr - 18:47:57 10° WSW 18:51:18 71° SSE 18:54:40 10° ENE daylight
16 Apr - 20:24:47 10° W 20:28:08 65° N 20:31:30 10° E daylight
16 Apr - 22:01:38 10° WNW 22:05:00 79° SSW 22:08:22 10° ESE visible
16 Apr - 23:38:47 10° W 23:41:25 21° SW 23:44:01 10° SSE visible
17 Apr - 16:25:33 10° SSE 16:26:56 12° SE 16:28:18 10° ESE daylight
17 Apr - 17:59:49 10° SW 18:03:05 52° SSE 18:06:22 10° ENE daylight
17 Apr - 19:36:28 10° W 19:39:50 69° N 19:43:11 10° ENE daylight
17 Apr - 21:13:21 10° WNW 21:16:44 84° NNE 21:20:06 10° ESE visible
17 Apr - 22:50:17 10° W 22:53:17 30° SSW 22:56:17 10° SSE visible
18 Apr - 17:11:45 10° SW 17:14:52 36° SSE 17:17:59 10° E daylight
18 Apr - 18:48:07 10° W 18:51:29 77° N 18:54:51 10° ENE daylight
18 Apr - 20:25:01 10° WNW 20:28:24 72° N 20:31:45 10° E daylight
18 Apr - 22:01:51 10° W 22:05:05 43° SSW 22:08:17 10° SE visible
19 Apr - 16:23:50 10° SSW 16:26:39 25° SE 16:29:28 10° E daylight
19 Apr - 17:59:45 10° WSW 18:03:07 88° SSE 18:06:30 10° ENE daylight
19 Apr - 19:36:39 10° W 19:40:00 66° N 19:43:21 10° E daylight
19 Apr - 21:13:27 10° WNW 21:16:47 61° SSW 21:20:06 10° ESE visible
19 Apr - 22:51:02 10° WSW 22:53:02 15° SW 22:55:02 10° S visible
20 Apr - 15:36:10 10° S 15:38:26 17° SE 15:40:44 10° E daylight
20 Apr - 17:11:25 10° WSW 17:14:45 68° SSE 17:18:05 10° ENE daylight
20 Apr - 18:48:13 10° W 18:51:33 65° N 18:54:55 10° E daylight
20 Apr - 20:25:03 10° WNW 20:28:25 81° SSW 20:31:47 10° ESE daylight
20 Apr - 22:02:09 10° W 22:04:50 22° SW 22:07:30 10° SSE visible
21 Apr - 14:49:07 10° SSE 14:50:15 11° SE 14:51:22 10° ESE daylight
21 Apr - 16:23:07 10° SW 16:26:22 49° SSE 16:29:38 10° ENE daylight
21 Apr - 17:59:44 10° W 18:03:05 69° N 18:06:26 10° ENE daylight
21 Apr - 19:36:36 10° WNW 19:39:59 82° NNE 19:43:21 10° ESE daylight
21 Apr - 21:13:30 10° W 21:16:32 32° SSW 21:19:34 10° SSE visible
22 Apr - 15:34:55 10° SW 15:37:59 34° SSE 15:41:04 10° E daylight
22 Apr - 17:11:13 10° W 17:14:34 79° NNW 17:17:57 10° ENE daylight
22 Apr - 18:48:07 10° WNW 18:51:28 71° N 18:54:50 10° E daylight
22 Apr - 20:24:55 10° WNW 20:28:10 46° SSW 20:31:23 10° SE daylight
22 Apr - 22:03:45 10° SW 22:04:14 10° SW 22:04:43 10° SW visible
23 Apr - 14:46:52 10° SSW 14:49:37 24° SE 14:52:22 10° E daylight
23 Apr - 16:22:42 10° WSW 16:26:03 85° SSE 16:29:25 10° ENE daylight
23 Apr - 17:59:34 10° W 18:02:55 66° N 18:06:15 10° E daylight
23 Apr - 19:36:22 10° WNW 19:39:42 64° SSW 19:43:01 10° ESE daylight
23 Apr - 21:13:50 10° W 21:15:57 16° SW 21:18:04 10° S visible
24 Apr - 13:59:05 10° S 14:01:15 16° SE 14:03:25 10° E daylight
24 Apr - 15:34:12 10° WSW 15:37:31 65° SSE 15:40:51 10° ENE daylight
24 Apr - 17:10:58 10° W 17:14:18 65° N 17:17:39 10° E daylight
24 Apr - 18:47:48 10° WNW 18:51:10 84° SSW 18:54:31 10° ESE daylight
24 Apr - 20:24:51 10° W 20:27:35 23° SW 20:30:19 10° SSE daylight
25 Apr - 13:12:11 10° SSE 13:12:54 11° SE 13:13:37 10° ESE daylight
25 Apr - 14:45:45 10° SW 14:48:59 47° SSE 14:52:13 10° ENE daylight
25 Apr - 16:22:19 10° W 16:25:40 70° N 16:29:01 10° ENE daylight
25 Apr - 17:59:11 10° WNW 18:02:33 80° NNE 18:05:55 10° E daylight
25 Apr - 19:36:03 10° W 19:39:08 34° SSW 19:42:11 10° SE daylight
